Location: Caltech
(34.1382°N, 118.1253°W)
Time: 20:50:02
(UTC-07:00)

Iridium 59 - Visible Passes

Search period start: 16 April 2014 00:00
Search period end: 26 April 2014 00:00
Orbit: 776 x 779 km, 86.4° (Epoch: 16 April)

Date Brightness Start Highest point End Pass type
(mag) Time Alt. Az. Time Alt. Az. Time Alt. Az.
16 Apr 7.6 02:24:43 10° N 02:25:32 15° N 02:25:32 15° N visible
17 Apr 7.8 01:51:24 10° NNE 01:52:03 14° NNE 01:52:03 14° NNE visible
18 Apr 8.0 01:18:33 10° NNE 01:18:35 10° NNE 01:18:35 10° NNE visible
18 Apr 7.6 02:58:51 10° NNW 02:59:03 11° NNW 02:59:03 11° NNW visible
19 Apr 7.6 02:24:52 10° N 02:25:35 14° NNW 02:25:35 14° NNW visible
20 Apr 7.7 01:51:19 10° N 01:52:08 15° N 01:52:08 15° N visible
21 Apr 7.9 01:18:09 10° NNE 01:18:41 13° NNE 01:18:41 13° NNE visible
22 Apr 7.6 02:25:10 10° NNW 02:25:42 13° NNW 02:25:42 13° NNW visible
23 Apr 7.6 01:51:22 10° N 01:52:15 15° N 01:52:15 15° N visible
24 Apr 7.7 01:17:57 10° N 01:18:48 15° NNE 01:18:48 15° NNE visible
25 Apr 7.9 00:44:59 10° NNE 00:45:22 12° NNE 00:45:22 12° NNE visible
25 Apr 7.7 02:25:38 10° NNW 02:25:50 11° NNW 02:25:50 11° NNW visible
